Lid_Strength_Index
-1 -1 -1 -1 -1 -1 1 1 1 1 1 1 1 1 2 1 2 5 9 7 5 1 2 6 5 6 4 5 4 5 9 11 10 10 9 7 8 8 7 7 7 5 5 4 2
-1 -1 -1 -1 -1 -1 0 1 1 1 1 1 1 2 1 1 5 8 5 0 -1 -0 6 7 7 7 7 6 6 8 10 9 7 8 8 7 7 7 9 8 8 6 5 3 2
-0 -1 -1 -1 -1 -1 -1 -0 -0 1 1 1 1 1 1 1 6 8 -0 -0 -0 -0 5 6 7 6 9 8 7 7 9 7 8 7 6 7 8 7 9 9 8 7 5 4 4
-0 -0 -0 -1 -1 -1 -1 -1 -1 0 1 1 2 1 1 3 12 4 -0 -0 1 4 7 7 8 8 8 10 8 9 8 8 7 7 7 7 6 8 8 9 7 6 4 4 4
0 0 0 -0 -1 -1 -1 -1 -1 -1 -0 2 1 0 3 7 7 2 -1 -1 2 5 8 8 8 7 9 9 10 10 9 8 7 8 8 7 8 9 8 7 7 5 4 4 4
0 1 1 0 -0 -1 -1 -1 -1 -1 -1 -1 -1 0 4 10 4 2 2 2 5 7 9 8 7 6 8 8 9 9 9 9 8 9 8 8 10 9 8 7 7 7 6 4 4
0 1 1 0 0 -1 -1 -1 -1 -1 -1 -1 -1 3 6 7 3 2 4 5 5 6 7 6 6 7 8 9 8 9 10 10 10 9 10 9 11 11 9 9 8 7 7 6 5
1 1 1 1 0 0 -1 -1 -1 -1 -1 -1 -1 3 8 3 3 3 3 5 5 5 5 5 5 6 7 8 9 11 11 13 10 9 9 10 13 8 8 9 9 9 9 8 7
1 1 1 1 1 -0 -1 -1 -1 -1 -1 -1 2 4 8 3 4 4 4 5 5 5 5 5 5 7 8 11 12 12 15 13 12 9 10 11 12 9 9 10 10 10 9 9 8
1 1 1 1 1 -0 -0 -1 -1 -1 -0 1 3 6 7 8 4 4 4 4 6 6 6 6 8 10 11 12 16 14 15 13 13 12 11 12 12 10 10 10 10 10 9 10 9
1 1 0 1 0 -1 1 2 4 6 5 8 8 8 7 5 3 5 4 5 5 7 10 8 11 13 12 11 11 13 13 14 12 11 12 12 12 10 9 10 10 10 10 9 9
1 1 0 0 -0 -1 2 7 6 6 9 6 6 6 5 4 8 6 4 8 8 11 9 11 13 10 9 10 11 12 13 14 13 11 12 13 12 10 10 10 9 10 10 9 9
1 1 0 -0 -0 1 4 6 3 4 9 8 6 6 6 4 7 7 5 7 9 10 11 12 11 9 9 11 12 13 13 14 13 12 13 14 15 13 11 9 9 9 9 9 8
1 1 1 -0 2 3 5 4 2 3 12 11 9 7 5 5 8 5 5 6 9 10 10 11 10 10 11 12 11 14 12 12 13 14 17 14 19 15 13 12 11 10 10 9 9
1 1 1 1 3 5 4 2 2 5 18 10 9 4 5 7 7 7 6 7 10 10 10 12 12 12 12 11 10 12 11 12 12 14 16 16 18 16 13 13 12 11 10 10 9
1 1 1 2 2 2 2 2 4 12 18 12 10 10 9 8 8 7 8 7 7 9 10 11 10 10 11 11 10 10 12 12 14 15 19 16 17 18 15 13 13 12 10 9 8
1 2 2 2 5 1 1 4 13 17 11 14 13 11 11 11 10 9 10 11 12 14 14 12 12 11 10 12 11 12 14 18 19 19 20 16 17 16 14 13 12 11 10 10 8
1 1 2 2 0 0 3 9 18 14 13 11 12 11 13 11 10 10 11 13 11 12 13 15 16 12 11 12 13 13 13 17 21 20 19 17 19 16 11 12 12 11 10 10 9
1 2 3 3 1 1 7 15 17 13 11 12 12 13 13 12 11 11 12 12 11 11 14 14 14 10 10 11 11 13 15 13 17 21 20 17 16 13 12 12 11 12 10 9 9
3 4 5 2 2 4 10 14 11 9 9 10 14 12 15 14 13 13 12 11 11 10 9 12 15 12 11 10 11 12 11 16 16 22 22 19 19 17 14 13 13 12 11 10 9
6 8 7 2 3 8 14 13 10 9 8 11 11 12 12 13 13 13 13 11 9 10 9 11 12 14 12 13 14 13 14 13 14 15 19 21 18 14 13 12 13 13 11 10 10
9 13 7 4 10 11 13 11 9 9 8 9 9 10 12 12 13 13 13 12 9 9 11 10 11 16 14 12 11 11 13 13 16 18 17 17 17 12 12 12 12 11 10 10 9
13 11 7 5 15 13 11 10 9 9 9 9 10 9 10 12 14 12 12 11 10 10 11 10 13 18 16 14 12 14 13 12 12 14 16 19 17 11 11 12 11 10 10 10 9
13 14 13 8 9 11 12 12 12 8 9 8 9 9 10 12 10 13 12 10 10 10 9 9 12 15 18 15 13 15 13 12 12 16 15 16 15 14 13 12 11 10 10 10 10
13 14 13 14 14 11 11 11 12 12 9 8 10 10 11 12 12 12 11 11 11 10 11 11 17 15 15 14 14 14 14 14 14 14 16 15 15 13 13 12 11 10 10 10 10
13 13 12 11 11 11 11 12 12 11 10 11 11 9 9 11 11 13 11 11 12 11 12 11 16 15 18 14 14 16 14 13 13 13 13 13 14 10 12 12 11 10 10 10 10
10 10 10 12 12 13 13 12 11 10 10 8 9 10 11 10 9 9 9 9 10 11 12 13 16 18 22 14 15 18 14 14 13 12 12 14 12 10 11 12 11 10 10 10 10